TimeCET,TemperatureF,Dew PointF,Humidity,Sea Level PressureIn,VisibilityMPH,Wind Direction,Wind SpeedMPH,Gust SpeedMPH,PrecipitationIn,Events,Conditions,WindDirDegrees,DateUTC
12:25 AM,46.4,39.2,76,30.27,6.2,SSW,19.6,-,N/A,,Light Drizzle,210,2013-11-11 23:25:00
12:55 AM,44.6,39.2,81,30.27,6.2,SSW,17.3,-,N/A,Rain,Light Drizzle,210,2013-11-11 23:55:00
1:00 AM,44,41,83,30.27,7,SSW,15.7,,,Rain,Rain,210,2013-11-12 00:00:00
1:25 AM,42.8,41.0,93,30.24,3.7,South,17.3,-,N/A,Rain,Light Rain,190,2013-11-12 00:25:00
1:55 AM,44.6,41.0,87,30.24,6.2,South,17.3,-,N/A,,Light Drizzle,190,2013-11-12 00:55:00
2:25 AM,44.6,41.0,87,30.24,6.2,South,13.8,-,N/A,,Overcast,190,2013-11-12 01:25:00
2:55 AM,44.6,41.0,87,30.24,6.2,South,16.1,-,N/A,,Overcast,190,2013-11-12 01:55:00
3:25 AM,44.6,41.0,87,30.21,6.2,South,18.4,-,N/A,,Mostly Cloudy,190,2013-11-12 02:25:00
3:55 AM,44.6,41.0,87,30.21,6.2,SSW,17.3,-,N/A,,Mostly Cloudy,200,2013-11-12 02:55:00
4:00 AM,45,41,82,30.22,19,SSW,17.9,,,,Partly Cloudy,200,2013-11-12 03:00:00
4:25 AM,44.6,41.0,87,30.21,6.2,SSW,15.0,-,N/A,,Light Drizzle,200,2013-11-12 03:25:00
4:55 AM,44.6,42.8,93,30.18,6.2,SSW,13.8,-,N/A,,Light Drizzle,200,2013-11-12 03:55:00
5:25 AM,44.6,41.0,87,30.18,6.2,South,13.8,-,N/A,,Light Drizzle,190,2013-11-12 04:25:00
5:55 AM,44.6,42.8,93,30.18,6.2,SSW,16.1,-,N/A,,Light Drizzle,200,2013-11-12 04:55:00
6:25 AM,44.6,42.8,93,30.18,4.3,SSW,13.8,-,N/A,,Light Drizzle,210,2013-11-12 05:25:00
6:55 AM,44.6,42.8,93,30.18,-9999.0,SSW,13.8,-,N/A,,Light Drizzle,200,2013-11-12 05:55:00
7:00 AM,45,43,91,30.19,2,SSW,13.4,,,Rain,Light Rain Showers,200,2013-11-12 06:00:00
7:25 AM,44.6,42.8,93,30.18,3.7,SSW,15.0,-,N/A,,Light Drizzle,200,2013-11-12 06:25:00
7:55 AM,44.6,42.8,93,30.18,5.0,SSW,15.0,-,N/A,,Light Drizzle,200,2013-11-12 06:55:00
8:25 AM,44.6,44.6,100,30.18,1.6,South,12.7,-,N/A,,Drizzle,190,2013-11-12 07:25:00
8:55 AM,44.6,44.6,100,30.18,1.6,South,11.5,-,N/A,,Light Drizzle,190,2013-11-12 07:55:00
9:25 AM,44.6,44.6,100,30.18,2.2,South,11.5,-,N/A,,Light Drizzle,190,2013-11-12 08:25:00
9:55 AM,44.6,44.6,100,30.18,1.9,South,11.5,-,N/A,,Light Drizzle,190,2013-11-12 08:55:00
10:00 AM,45,44,97,30.19,2,South,11.2,,,Rain,Light Rain Showers,190,2013-11-12 09:00:00
10:25 AM,44.6,44.6,100,30.18,3.1,SSW,11.5,-,N/A,,Light Drizzle,200,2013-11-12 09:25:00
10:55 AM,46.4,44.6,93,30.18,0.9,SSW,13.8,-,N/A,,Drizzle,200,2013-11-12 09:55:00
11:25 AM,46.4,44.6,93,30.18,1.6,SSW,13.8,-,N/A,,Light Drizzle,200,2013-11-12 10:25:00
11:55 AM,46.4,44.6,93,30.18,1.6,SSW,11.5,-,N/A,,Drizzle,210,2013-11-12 10:55:00
12:25 PM,46.4,46.4,100,30.18,1.8,SSW,10.4,-,N/A,,Drizzle,210,2013-11-12 11:25:00
12:55 PM,46.4,46.4,100,30.18,-9999.0,SSW,8.1,-,N/A,,Light Drizzle,210,2013-11-12 11:55:00
1:00 PM,47,46,96,30.21,2,SSW,8.9,,,Rain,Drizzle,200,2013-11-12 12:00:00
1:25 PM,46.4,46.4,100,30.18,1.7,SW,8.1,-,N/A,,Drizzle,220,2013-11-12 12:25:00
1:55 PM,48.2,46.4,93,30.18,2.2,WSW,9.2,-,N/A,,Light Drizzle,240,2013-11-12 12:55:00
2:25 PM,48.2,48.2,100,30.18,-9999.0,Variable,2.3,-,N/A,,Light Drizzle,0,2013-11-12 13:25:00
2:55 PM,50.0,48.2,94,30.21,6.2,Variable,2.3,-,N/A,,Mostly Cloudy,0,2013-11-12 13:55:00
3:25 PM,50.0,48.2,94,30.21,6.2,NW,3.5,-,N/A,,Mostly Cloudy,320,2013-11-12 14:25:00
3:55 PM,50.0,48.2,94,30.21,6.2,NNW,4.6,-,N/A,,Scattered Clouds,340,2013-11-12 14:55:00
4:00 PM,51,49,89,30.24,10,NNW,6.7,,,Rain,Drizzle,340,2013-11-12 15:00:00
4:25 PM,50.0,48.2,94,30.24,6.2,NNW,4.6,-,N/A,,Partly Cloudy,330,2013-11-12 15:25:00
4:55 PM,50.0,48.2,94,30.24,6.2,NNW,3.5,-,N/A,,Partly Cloudy,330,2013-11-12 15:55:00
5:25 PM,48.2,46.4,93,30.24,6.2,NNW,4.6,-,N/A,,Partly Cloudy,330,2013-11-12 16:25:00
5:55 PM,48.2,46.4,93,30.24,6.2,NW,3.5,-,N/A,,Partly Cloudy,310,2013-11-12 16:55:00
6:25 PM,46.4,46.4,100,30.27,6.2,NNW,3.5,-,N/A,,Partly Cloudy,330,2013-11-12 17:25:00
6:55 PM,46.4,44.6,93,30.27,6.2,NW,3.5,-,N/A,,Partly Cloudy,320,2013-11-12 17:55:00
7:00 PM,46,45,93,30.30,8,NW,4.5,,,,Partly Cloudy,320,2013-11-12 18:00:00
7:25 PM,46.4,44.6,93,30.30,6.2,NW,4.6,-,N/A,,Partly Cloudy,320,2013-11-12 18:25:00
7:55 PM,48.2,44.6,87,30.30,6.2,NW,6.9,-,N/A,,Partly Cloudy,320,2013-11-12 18:55:00
8:25 PM,46.4,42.8,87,30.30,6.2,NNW,6.9,-,N/A,,Partly Cloudy,330,2013-11-12 19:25:00
8:55 PM,46.4,44.6,93,30.33,6.2,NNW,8.1,-,N/A,,Partly Cloudy,330,2013-11-12 19:55:00
9:25 PM,46.4,42.8,87,30.33,6.2,NNW,6.9,-,N/A,,Partly Cloudy,330,2013-11-12 20:25:00
9:55 PM,46.4,41.0,81,30.33,6.2,NNW,9.2,-,N/A,,Partly Cloudy,330,2013-11-12 20:55:00
10:00 PM,45,41,82,30.37,12,NNW,8.9,,,,,340,2013-11-12 21:00:00
10:25 PM,44.6,41.0,87,30.36,6.2,NNW,6.9,-,N/A,,Partly Cloudy,330,2013-11-12 21:25:00
10:55 PM,44.6,41.0,87,30.36,6.2,NNW,5.8,-,N/A,,Partly Cloudy,330,2013-11-12 21:55:00
11:25 PM,42.8,39.2,87,30.36,6.2,NW,4.6,-,N/A,,Partly Cloudy,310,2013-11-12 22:25:00
11:55 PM,42.8,39.2,87,30.36,6.2,NW,3.5,-,N/A,,Partly Cloudy,320,2013-11-12 22:55:00